Location: Rounton
(54.4000°N, 1.3500°W)
Time: 19:14:33
(UTC+00:00)

A-11 Canister half - All Passes

Search period start: 30 November 2021 00:00
Search period end: 10 December 2021 00:00
Orbit: 1516 x 1684 km, 47.2° (Epoch: 30 November)

Date Brightness Start Highest point End Pass type
(mag) Time Alt. Az. Time Alt. Az. Time Alt. Az.
30 Nov - 06:47:23 10° S 06:53:59 21° SE 07:00:41 10° E visible
30 Nov - 08:47:51 10° SW 08:56:58 45° SSE 09:06:20 10° E daylight
30 Nov - 10:51:18 10° WSW 11:00:59 59° S 11:10:51 10° ESE daylight
30 Nov - 12:55:39 10° W 13:05:04 47° SSW 13:14:33 10° SE daylight
30 Nov - 15:00:58 10° W 15:08:15 23° SW 15:15:32 10° S daylight
01 Dec - 06:24:54 10° S 06:31:11 20° SE 06:37:35 10° E visible
01 Dec - 08:25:05 10° SW 08:34:06 43° SSE 08:43:22 10° E daylight
01 Dec - 10:28:25 10° WSW 10:38:04 58° S 10:47:56 10° ESE daylight
01 Dec - 12:32:44 10° W 12:42:10 48° SSW 12:51:42 10° SE daylight
01 Dec - 14:37:56 10° W 14:45:26 24° SW 14:52:57 10° S daylight
02 Dec - 06:02:27 10° SSE 06:08:24 18° SE 06:14:27 10° E visible
02 Dec - 08:02:18 10° SW 08:11:14 42° SSE 08:20:25 10° E daylight
02 Dec - 10:05:32 10° WSW 10:15:09 58° S 10:25:01 10° ESE daylight
02 Dec - 12:09:49 10° W 12:19:17 49° SSW 12:28:52 10° SE daylight
02 Dec - 14:14:55 10° W 14:22:36 26° SW 14:30:19 10° S daylight
03 Dec - 05:40:03 10° SSE 05:45:37 17° SE 05:51:17 10° E visible
03 Dec - 07:39:33 10° SW 07:48:23 41° SSE 07:57:28 10° E daylight
03 Dec - 09:42:40 10° WSW 09:52:15 58° S 10:02:05 10° E daylight
03 Dec - 11:46:54 10° W 11:56:23 50° SSW 12:06:01 10° SE daylight
03 Dec - 13:51:54 10° W 13:59:47 27° SW 14:07:40 10° S daylight
04 Dec - 05:17:41 10° SSE 05:22:51 16° SE 05:28:05 10° E visible
04 Dec - 07:16:48 10° SSW 07:25:31 39° SSE 07:34:30 10° E visible
04 Dec - 09:19:48 10° WSW 09:29:21 57° S 09:39:09 10° E daylight
04 Dec - 11:24:00 10° W 11:33:30 51° SSW 11:43:08 10° SE daylight
04 Dec - 13:28:55 10° W 13:36:57 28° SW 13:45:01 10° SSE daylight
05 Dec - 04:55:24 10° SSE 05:00:05 15° SE 05:04:49 10° E visible
05 Dec - 06:54:03 10° SSW 07:02:40 38° SSE 07:11:33 10° E visible
05 Dec - 08:56:56 10° WSW 09:06:27 57° S 09:16:14 10° E daylight
05 Dec - 11:01:06 10° W 11:10:36 52° SSW 11:20:17 10° SE daylight
05 Dec - 13:05:57 10° W 13:14:07 29° SW 13:22:21 10° SSE daylight
06 Dec - 04:33:12 10° SSE 04:37:19 13° SE 04:41:29 10° E visible
06 Dec - 06:31:20 10° SSW 06:39:50 36° SSE 06:48:35 10° E visible
06 Dec - 08:34:05 10° WSW 08:43:33 56° S 08:53:17 10° E daylight
06 Dec - 10:38:12 10° W 10:47:42 53° SSW 10:57:25 10° ESE daylight
06 Dec - 12:42:58 10° W 12:51:16 31° SW 12:59:39 10° SSE daylight
07 Dec - 04:11:07 10° SE 04:14:33 12° SE 04:18:01 10° ESE visible
07 Dec - 06:08:37 10° SSW 06:16:59 35° SE 06:25:36 10° E visible
07 Dec - 08:11:15 10° WSW 08:20:40 56° S 08:30:22 10° E daylight
07 Dec - 10:15:18 10° W 10:24:48 54° SSW 10:34:31 10° ESE daylight
07 Dec - 12:20:01 10° W 12:28:25 32° SW 12:36:55 10° SSE daylight
07 Dec - 14:29:47 10° WSW 14:30:47 10° WSW 14:31:47 10° SW daylight
08 Dec - 03:49:17 10° SE 03:51:48 11° ESE 03:54:20 10° ESE visible
08 Dec - 05:45:55 10° SSW 05:54:09 34° SE 06:02:38 10° E visible
08 Dec - 07:48:24 10° WSW 07:57:46 55° SSE 08:07:26 10° E daylight
08 Dec - 09:52:25 10° W 10:01:54 55° SSW 10:11:38 10° ESE daylight
08 Dec - 11:57:04 10° W 12:05:34 33° SW 12:14:12 10° SSE daylight
08 Dec - 14:05:25 10° WSW 14:08:01 11° WSW 14:10:37 10° SW daylight
09 Dec - 03:28:14 10° SE 03:29:03 10° ESE 03:29:53 10° ESE visible
09 Dec - 05:23:14 10° SSW 05:31:19 32° SE 05:39:39 10° E visible
09 Dec - 07:25:33 10° WSW 07:34:52 54° SSE 07:44:30 10° E visible
09 Dec - 09:29:31 10° W 09:39:00 55° SSW 09:48:44 10° ESE daylight
09 Dec - 11:34:07 10° W 11:42:43 35° SW 11:51:28 10° SSE daylight
09 Dec - 13:41:46 10° WSW 13:45:15 12° SW 13:48:45 10° SW daylight
